TITAN 3C TRANSTAGE DEB, 59980

Orbit data source: Space-Track

TITAN 3C TRANSTAGE DEB, 59980 is space debris in GEO originally from a launch on Thu, 26 Sep 1968 UTC launched from the Air Force Eastern Test Range (AFETR). Debris objects in space refer to the collection of defunct objects orbiting the Earth. Examples of debris include non-operational satellites, rocket bodies, and fragments generated from explosions, collisions, or faulty payload assembly.

Not visible in the next 10 days
Identifier
59980, 1968-081AN
Orbit
GEO
Country
Flag of USUS
Related business
Manufacturer
Unknown
Mission
Spacecraft
Bus & Motor
Unknown
Mass
Unknown
Launch date (UTC)
1968-09-26 (57 years ago)
Launch vehicle
Unknown
Launch site
Air Force Eastern Test Range (AFETR)
Object type
Payload
Rocket body
Debris
Shape & HBR
Unknown shape, 1.1 m
Radar Cross Section
RCS unknown

Expand to show TLE details & history
Last TLE update: 3 weeks ago

TLE from 3 weeks ago
0 TITAN 3C TRANSTAGE DEB
1 59980U 68081AN  25283.17283635 -.00000020  00000-0  00000-0 0  9992
2 59980   1.3024  48.1748 0033583 271.5231  88.2447  1.02248746 40964
Epoch: 2025-10-10T04:08Z
TLE epoch observation values (Epoch: 2025-10-10T04:08:53.060Z)
Latitude
-0.00001°
Longitude
-32.94502°
Altitude
35,236.313 km
Speed
3.095 km/s
True Right ascension
03h 13m 11s
True Declination
0° 00' 00"
Sunlit
Object was in daylight at epoch
Visualization orbit readout
Latitude
Unknown
Longitude
Unknown
Altitude
Unknown
Speed
Unknown
Apparent Right ascension
Unknown
Apparent Declination
Unknown
Sunlit
N/A
Visualization observer readout
Local Sidereal Time
23:58:46
Azimuth
Unknown
Elevation
Unknown
Doppler factor
Unknown
Orbital elements
Apogee altitude
35,382.187 km
Perigee altitude
35,102.639 km
Semi-major axis
41,620.55 km
Eccentricity
0.00336
Inclination
1.3024°
RAAN
48.1748°
Arg. of periapsis
271.5231°
True anomaly
88.6294°
Mean anomaly
88.2447°
Eccentric anomaly
88.43704°
Mean motion
0.25561 °/min
Orbital period
1,408.38 mins
BSTAR
0
Loading maneuver chart data...
Computing Atmospheric mass density...

Documentation

Showing up to 5 results
|